Find Eutelsat W7

NORAD ID: 36101 Int'l Des: 2009-065 Owner: EUTSA Country: F operational
HEOCIRCULARGSO

現在のビュー

3D地球を読み込み中...

Eutelsat W7について

説明を読み込み中...

次回通過

Passes for default location (London). Set your location on the main map for personalized predictions.

高度履歴

Loading altitude history...

軌道要素

1 36101U 09065A 26150.79834794 .00000124 00000-0 00000+0 0 9992
2 36101 0.4485 80.9001 0005983 346.3820 158.9267 1.00273061 60535
Epoch: May 30, 2026 • Age: 11 hours

現在のステータス

高度 35764.9 km
速度 3.08 km/s
衛星直下点 -0.31°S, 50.45°E
打ち上げ日 Nov 24, 2009
運用期間 16.5 years
タイプ other

技術仕様

分類 Payload
質量 5627.00 kg
乾燥質量 2800.00 kg
総質量 5627.00 kg
長さ 7.50 m
直径 2.60 m
スパン 34.00 m
形状 Box + 2 Pan + Dish
製造者 THALES
バスタイプ Spacebus 4000C4
フェーズステータス Renamed
所有者/国 EUTSA/F

Most Searched